Probability
0 0 0 0 0 0 0 0 0 0 0 0 0 0 0 1 0 0 0 0 0 0 0 1 2 2 1 0 0 0 0 0 0 0 0 0 0 0 0 0 0 0 0 0 0 0 0 0 0
0 0 0 0 0 0 0 0 0 0 0 0 0 0 0 1 0 0 0 0 0 0 0 2 5 6 3 0 0 0 0 0 0 0 0 0 0 0 0 0 0 0 0 0 0 0 0 0 0
0 0 0 0 0 0 0 0 0 0 0 0 0 0 0 0 0 0 0 0 0 0 0 5 13 15 8 2 0 0 0 0 0 0 0 0 0 0 0 0 0 0 0 0 0 0 0 0 0
0 0 0 0 0 0 0 0 0 0 0 0 0 0 0 0 0 0 0 0 1 2 1 8 22 26 16 5 0 0 0 0 0 0 0 0 0 0 0 0 0 0 0 0 0 0 0 0 0
0 0 0 0 0 0 0 0 0 0 0 0 0 0 0 0 0 0 0 0 1 3 3 12 28 35 26 14 5 2 1 1 1 0 0 0 0 0 0 0 0 0 0 0 0 0 0 0 0
0 0 0 0 0 0 0 0 0 0 0 0 0 0 0 0 0 0 0 0 1 4 8 17 32 41 38 28 18 12 9 6 4 2 1 0 0 0 0 0 0 0 0 0 0 0 0 0 0
0 0 0 0 0 0 0 0 0 0 0 0 0 0 0 0 0 0 0 0 2 8 16 26 37 45 46 40 31 25 21 16 11 7 4 1 0 0 0 0 0 0 0 0 0 0 0 0 0
0 0 0 0 0 0 0 0 0 0 0 0 0 0 0 1 1 1 1 2 6 15 25 34 43 50 51 46 40 35 30 25 18 12 7 3 1 0 0 0 0 0 0 0 0 0 0 0 0
0 0 0 0 0 0 0 0 0 0 0 0 0 1 5 9 10 7 5 7 13 22 32 41 50 56 57 54 47 41 37 31 24 16 10 6 2 1 0 0 0 0 0 0 0 0 0 0 1
0 0 0 0 0 0 0 0 0 0 0 0 1 4 15 25 27 21 15 15 20 27 36 45 52 59 62 60 55 49 45 40 33 25 18 13 7 3 1 1 0 0 0 0 0 0 0 1 3
0 0 0 0 0 0 0 0 0 0 0 0 1 9 27 43 47 40 33 29 29 33 40 47 53 57 62 62 57 52 51 50 47 39 32 25 17 10 7 5 2 0 0 0 1 2 2 1 2
0 0 0 0 0 0 0 0 0 0 1 2 5 15 33 47 52 49 45 41 39 41 44 49 53 55 58 59 53 50 53 55 56 53 48 42 33 21 14 11 6 2 2 2 3 5 4 2 1
0 0 0 0 0 0 0 0 0 1 2 6 13 22 32 38 39 39 39 41 44 45 44 45 49 50 50 49 44 43 48 52 57 60 60 56 46 31 19 12 7 4 4 4 4 5 6 4 3
0 0 0 0 0 0 0 1 3 4 6 12 21 28 31 29 24 23 26 31 38 41 37 35 36 37 36 34 31 31 37 45 52 59 60 56 45 30 18 10 6 5 5 4 4 4 5 5 4
0 0 0 0 0 0 1 4 8 11 13 19 26 30 31 25 17 14 15 20 27 30 28 24 22 22 22 21 20 21 28 37 46 53 54 47 35 22 14 10 7 5 5 4 3 3 3 2 2
0 0 0 0 0 0 1 4 10 16 19 23 25 25 24 18 13 11 11 12 15 18 16 12 11 12 14 15 15 18 25 33 40 46 47 41 30 18 12 10 8 5 5 4 3 2 1 1 0
0 0 0 0 0 0 1 3 6 11 15 17 16 14 12 11 9 8 7 7 8 7 5 4 5 7 9 10 12 15 19 25 30 34 36 34 27 18 13 10 7 4 4 3 3 2 1 0 0
0 0 0 0 0 0 1 2 2 3 5 7 7 6 6 5 5 4 3 3 3 2 1 1 2 3 5 5 6 8 9 12 16 19 22 24 21 16 13 9 5 3 3 3 2 1 0 0 0
0 0 0 0 0 0 0 1 1 0 1 2 3 3 3 2 1 0 0 1 1 0 0 0 0 1 1 2 2 2 2 4 6 8 11 13 13 12 9 6 4 3 3 2 1 0 0 0 0
0 0 0 0 0 0 0 0 0 0 0 1 1 1 1 0 0 0 0 0 0 0 0 0 0 0 0 0 0 0 0 1 2 3 4 5 6 6 5 3 1 1 2 1 0 0 0 0 0
0 0 0 1 0 0 0 0 0 0 0 0 0 0 1 0 0 0 0 0 0 0 0 0 0 0 0 0 0 0 0 0 1 1 1 0 1 2 2 1 0 0 0 0 0 0 0 0 0
0 0 1 2 1 0 0 0 0 0 0 0 0 0 0 0 0 0 0 0 0 0 0 0 0 0 0 0 0 0 0 0 0 0 0 0 0 0 0 0 0 0 0 0 0 0 0 0 0
0 0 0 1 0 0 0 0 0 0 0 0 0 0 0 0 0 0 0 0 0 0 0 0 0 0 0 0 0 0 0 0 0 0 0 0 0 0 0 0 0 0 0 0 0 0 0 0 0
0 0 0 0 0 0 0 0 0 0 0 0 0 0 0 0 0 0 0 0 0 0 0 0 0 0 0 0 0 0 0 0 0 0 0 0 0 0 0 0 0 0 0 0 0 0 0 0 0
0 0 0 0 0 0 0 0 0 0 0 0 0 0 0 0 0 0 0 0 0 0 0 0 0 0 0 0 0 0 0 0 0 0 0 0 0 0 0 0 0 0 0 0 0 0 0 0 0
0 0 0 0 0 0 0 0 0 0 0 0 0 0 0 0 0 0 0 0 0 0 0 0 0 0 0 0 0 0 0 0 0 0 0 0 0 0 0 0 0 0 0 0 0 0 0 0 0
0 0 0 0 0 0 0 0 0 0 0 0 0 0 0 0 0 0 0 0 0 0 0 0 0 0 0 0 0 0 0 0 0 0 0 0 0 0 0 0 0 0 0 0 0 0 0 0 0
0 0 0 0 0 0 0 0 0 0 0 0 0 0 0 0 0 0 0 0 0 0 0 0 0 0 0 0 0 0 0 0 0 0 0 0 0 0 0 0 0 0 0 0 0 0 0 0 0
0 0 0 0 0 0 0 0 0 0 0 0 0 0 0 0 0 0 0 0 0 0 0 0 0 0 0 0 0 0 0 0 0 0 0 0 0 0 0 0 0 0 0 0 0 0 0 0 0
0 0 0 0 0 0 0 0 0 0 0 0 0 0 0 0 0 0 0 0 0 0 0 0 0 0 0 0 0 0 0 0 0 0 0 0 0 0 0 0 0 0 0 0 0 0 0 0 0
Wind_Speed
13 9 4 2 1 1 2 3 2 3 3 2 1 2 3 4 4 4 1 10 14 14 13 15 18 18 17 16 16 15 15 15 15 15 15 15 15 15 15 14 13 12 12 11 11 10 10 10 10
7 6 2 2 1 1 3 3 1 1 1 0 2 3 3 1 1 3 4 7 14 13 11 11 18 18 18 17 16 15 15 15 14 14 14 14 14 14 14 13 12 11 11 10 10 10 10 10 9
6 3 3 2 0 2 3 3 2 1 1 1 2 3 2 1 4 6 6 11 12 11 9 12 20 19 19 17 16 15 15 14 14 14 13 13 14 13 13 12 11 10 10 10 9 9 9 9 8
4 2 3 2 3 4 4 4 2 1 1 3 3 3 1 0 6 7 12 14 14 11 9 11 20 20 19 18 17 16 15 14 14 13 13 13 13 12 12 11 10 10 9 9 9 8 8 8 8
3 3 3 2 5 5 4 4 2 1 0 1 2 2 0 2 6 11 15 15 15 11 8 10 19 19 19 18 17 16 15 15 14 13 13 13 12 12 11 11 10 9 9 9 9 8 8 8 8
4 4 3 2 5 6 4 2 1 1 0 1 2 2 1 3 7 11 13 13 13 12 9 8 18 19 18 17 17 16 15 15 14 13 13 13 12 12 11 11 10 10 10 10 10 9 9 9 9
4 4 2 3 4 5 4 1 0 1 1 2 4 3 2 3 5 8 9 10 9 9 8 6 9 12 16 16 16 15 15 14 14 14 14 13 13 12 12 12 12 12 11 11 11 11 11 10 10
5 4 1 2 3 5 3 2 2 2 3 1 4 4 4 5 10 9 8 7 7 6 6 5 5 6 6 8 14 14 14 14 14 14 14 14 14 13 14 12 12 13 13 13 13 12 12 12 11
4 4 2 4 4 5 3 2 3 1 2 2 2 2 3 13 15 11 8 7 6 7 5 4 4 4 4 3 7 10 12 13 13 12 15 14 7 7 8 11 14 15 15 14 14 14 14 13 12
4 4 7 5 4 4 4 4 3 2 3 3 2 3 9 15 14 12 10 9 8 8 7 4 4 3 3 3 2 2 3 4 6 5 6 5 4 5 9 9 16 17 16 16 16 16 15 12 6
4 6 5 5 5 4 3 3 1 2 4 6 5 4 10 11 10 10 9 8 6 6 6 4 3 3 2 1 0 1 2 2 4 5 6 4 4 4 6 4 7 9 12 9 10 11 7 7 6
3 6 5 5 3 2 2 1 1 1 6 2 2 7 10 10 8 8 8 8 8 7 7 5 5 3 2 1 1 2 3 3 4 6 6 5 4 5 6 5 5 5 5 6 6 5 7 8 8
3 5 4 6 6 3 1 2 2 4 8 7 10 12 12 11 9 8 9 9 8 7 6 6 6 4 2 2 3 4 5 6 6 6 6 8 7 7 7 6 6 7 6 6 6 6 7 8 8
4 5 7 7 5 2 7 7 9 11 11 8 13 15 15 13 11 10 9 8 7 7 6 5 4 3 3 2 4 5 5 6 6 7 8 9 8 8 7 7 7 7 7 6 6 6 5 5 5
3 5 7 7 6 2 7 13 14 15 8 14 16 16 17 15 13 11 8 7 6 5 4 3 2 2 3 5 7 7 6 6 6 6 7 8 8 9 8 7 7 6 6 6 4 4 3 3 3
3 4 5 8 11 7 9 9 14 13 13 15 15 15 16 14 13 11 9 8 6 5 3 1 1 2 4 5 7 7 7 6 5 4 5 7 9 11 9 7 7 5 4 4 3 3 3 3 3
5 4 3 6 13 8 11 8 10 11 13 14 13 13 13 12 11 9 8 6 5 4 3 3 4 5 5 5 6 7 5 5 3 3 4 6 9 11 9 7 5 4 4 4 4 3 3 3 3
3 2 2 3 6 12 14 10 10 11 13 13 12 11 10 10 9 7 7 6 5 5 4 4 4 5 5 4 4 4 3 2 3 3 3 7 7 9 7 5 5 5 4 3 3 3 2 2 2
2 1 1 2 5 9 12 11 10 10 11 11 10 9 9 7 6 6 6 6 5 6 5 5 6 6 5 3 3 4 3 2 2 2 4 7 7 7 6 4 5 5 5 5 5 3 3 2 2
3 1 2 4 7 7 9 10 7 9 8 8 8 7 7 6 6 6 6 5 5 5 5 5 6 6 6 4 3 2 3 2 1 2 3 5 5 5 5 6 5 5 4 4 5 4 3 2 3
2 3 4 5 5 5 6 5 4 5 6 7 7 6 6 6 6 5 5 5 5 5 5 4 4 5 5 5 3 3 3 3 4 4 3 4 4 3 4 6 5 6 5 6 6 5 6 4 3
2 2 3 7 5 2 3 2 1 1 4 5 5 5 5 5 4 4 4 5 5 4 3 3 4 4 4 4 4 5 3 3 3 3 3 5 5 3 2 3 5 5 5 5 6 6 4 5 3
1 3 4 4 5 4 4 4 2 3 2 3 2 2 3 4 4 4 5 4 5 4 4 3 3 3 3 3 3 3 2 1 2 2 4 5 5 5 5 3 2 4 4 6 6 6 6 5 4
3 5 6 5 5 3 2 2 3 4 5 4 3 3 3 4 5 5 6 5 6 6 5 4 3 3 3 2 1 1 1 1 2 3 3 3 3 3 5 4 3 3 3 5 6 6 8 6 5
5 6 6 6 5 2 1 1 3 2 3 4 5 5 5 5 5 6 7 7 7 7 7 6 5 5 5 4 3 2 2 2 2 2 2 2 2 2 3 4 3 3 4 4 5 6 7 8 7
2 7 6 3 3 4 3 1 2 1 2 2 2 3 4 5 6 7 9 9 9 9 8 7 6 7 6 6 5 5 4 3 3 4 4 3 3 3 3 3 3 3 3 4 4 5 7 7 8
3 3 4 6 2 1 3 3 3 2 1 1 1 2 4 6 7 8 9 9 9 9 9 8 7 8 8 8 7 7 7 6 6 6 5 4 4 4 4 4 3 3 3 3 3 4 6 7 8
5 6 5 5 3 1 4 2 4 5 3 1 0 2 4 6 7 8 8 7 7 7 8 8 8 9 9 9 8 8 8 8 8 6 7 7 6 6 5 5 4 4 3 2 2 3 4 6 7
5 5 6 4 4 4 2 3 2 3 1 0 2 3 5 7 8 8 7 7 8 8 8 8 9 9 10 10 10 9 9 9 8 8 9 8 7 7 7 6 5 5 5 3 3 3 3 4 5
4 4 3 3 0 2 2 4 2 0 1 0 3 5 6 8 8 8 8 8 8 9 9 10 10 11 12 11 10 11 10 9 9 10 10 9 9 8 8 7 6 6 6 5 4 4 4 4 4
Wind_Direction
142 138 137 145 128 33 280 264 270 335 357 354 104 119 138 152 183 224 20 141 137 147 157 166 164 160 157 154 153 152 150 149 150 151 153 156 158 160 161 161 161 161 160 158 157 154 150 147 145
140 151 148 102 95 15 291 264 318 356 245 332 63 74 70 81 82 112 125 142 141 145 154 161 164 162 160 158 157 156 155 155 155 157 159 161 164 165 165 164 164 164 163 163 162 161 158 154 152
157 176 111 88 183 215 266 259 243 224 178 90 72 66 98 200 152 161 158 143 139 145 153 165 165 165 163 162 161 161 161 162 163 164 166 168 170 172 172 171 171 171 170 169 169 168 164 161 160
145 78 64 59 269 245 239 257 237 254 8 59 100 87 82 61 163 158 145 145 145 149 154 169 166 167 167 167 167 167 168 169 171 173 175 177 178 180 181 181 181 181 180 179 178 177 172 171 171
82 91 59 340 274 265 259 273 256 251 86 68 120 133 204 22 115 135 146 151 152 151 156 171 168 170 170 171 173 173 174 177 180 182 184 185 187 189 190 191 192 192 191 191 190 189 185 186 186
76 77 80 286 279 282 281 275 321 314 304 106 124 149 220 121 132 150 153 154 155 153 154 167 171 173 174 176 178 180 181 183 187 191 193 194 196 198 199 200 202 203 203 203 202 202 201 201 202
128 122 187 245 278 291 286 329 272 262 264 205 162 165 233 162 151 142 142 139 142 148 151 162 167 173 177 180 183 186 188 191 194 198 200 203 204 206 208 209 212 214 214 215 216 216 216 216 217
148 120 215 261 263 278 290 320 281 214 245 205 159 179 220 175 135 123 116 117 125 137 145 147 149 155 166 179 189 192 196 200 204 206 207 209 212 213 216 216 221 223 224 225 226 227 228 227 228
110 86 221 237 234 267 277 278 281 254 259 249 216 204 159 130 130 125 117 117 135 150 145 133 131 133 139 161 197 200 206 209 212 215 217 216 218 221 224 226 227 231 232 233 234 235 235 235 235
108 157 227 231 223 258 273 248 253 292 296 284 278 82 111 130 139 139 142 149 157 164 163 142 129 116 115 177 202 220 222 221 217 214 223 220 210 219 228 236 235 237 239 240 239 239 239 240 235
164 202 239 258 253 255 262 264 229 172 266 250 235 125 125 129 136 141 143 141 146 147 154 143 131 109 109 123 332 241 230 229 226 220 221 224 218 223 232 230 244 246 247 245 245 243 233 228 226
222 247 244 264 263 274 248 257 42 201 247 301 46 103 112 120 127 124 121 122 126 133 143 134 131 125 142 170 238 243 233 227 226 221 218 219 224 226 228 230 231 235 241 243 240 236 228 227 228
245 262 266 258 274 245 99 48 49 336 317 12 66 84 93 93 85 94 109 114 119 126 135 144 143 150 173 210 243 238 235 231 229 224 220 220 227 232 230 231 231 232 233 236 238 233 230 228 228
257 272 286 295 282 202 102 50 29 342 338 49 71 72 71 73 78 82 90 100 108 118 127 129 136 165 179 227 259 258 244 233 226 220 221 224 229 234 232 232 233 233 231 232 231 227 226 224 221
296 309 326 356 348 347 101 47 15 345 35 69 74 76 71 67 67 68 71 78 91 102 110 125 156 202 227 235 241 247 243 237 227 223 223 227 233 238 236 233 235 233 225 224 224 219 206 208 210
15 20 355 354 2 10 78 56 10 6 58 71 76 76 74 66 61 58 59 59 57 62 63 39 339 258 254 260 259 255 249 238 235 227 231 235 238 240 236 231 232 225 211 204 200 194 193 204 205
26 19 352 1 15 38 71 67 18 28 60 70 72 73 72 67 54 45 46 50 43 32 25 2 341 324 299 280 264 258 248 241 242 241 236 245 245 241 230 224 222 201 193 190 189 177 183 194 205
307 345 23 54 39 64 78 70 36 35 57 67 68 67 64 59 45 33 32 34 34 25 16 9 347 337 323 307 297 300 297 252 233 241 246 250 246 236 217 209 202 185 180 180 176 167 170 185 192
236 213 122 125 124 72 75 66 38 32 45 54 58 58 57 53 45 40 38 36 42 35 24 15 5 357 353 341 332 328 317 287 246 240 264 251 237 223 200 193 187 182 183 185 177 161 171 182 160
195 155 113 98 115 104 92 68 38 32 38 41 48 48 48 47 39 29 26 25 32 33 26 22 15 4 357 342 314 295 306 315 352 359 306 276 252 226 204 196 190 186 180 180 179 165 161 177 171
184 184 177 154 115 120 119 72 27 10 24 37 37 36 36 41 33 15 9 10 20 23 16 14 7 3 360 354 343 339 353 356 13 7 345 319 303 259 219 206 195 190 184 189 189 177 169 178 192
285 268 170 147 138 161 173 125 172 333 355 8 13 15 18 12 9 356 352 354 2 358 351 351 351 355 355 7 35 45 35 17 356 337 333 335 342 334 304 239 211 200 196 195 193 184 176 164 179
211 49 76 107 121 84 42 112 195 194 259 286 309 336 339 335 333 324 322 321 316 312 311 307 318 335 342 9 41 61 51 359 319 334 347 349 352 359 3 344 275 227 214 211 199 184 185 180 176
118 74 58 56 69 63 330 144 225 209 203 207 230 252 273 291 298 298 299 298 294 292 290 287 295 301 308 331 18 69 52 349 348 345 343 341 337 344 356 356 340 292 246 224 212 201 194 194 188
71 74 28 8 12 276 296 148 248 220 178 183 202 224 246 267 278 284 285 283 279 278 274 272 276 280 283 285 280 258 244 252 266 278 291 303 311 310 320 333 326 310 281 253 222 209 208 201 199
80 123 145 199 233 284 343 296 296 164 141 148 181 217 248 265 272 275 274 274 276 277 276 270 265 266 271 273 272 268 258 248 249 250 250 255 253 259 271 288 298 300 297 279 238 223 217 209 209
95 76 141 127 134 351 305 311 355 61 72 143 187 236 261 270 273 274 277 280 281 282 279 271 266 267 267 263 262 263 258 250 249 252 251 254 255 259 260 265 276 284 289 292 272 237 228 215 213
85 131 86 92 118 304 310 342 333 326 308 277 260 271 282 285 284 285 287 291 293 292 290 286 270 264 266 266 260 260 252 248 246 247 250 249 252 255 264 268 266 267 267 264 261 267 249 230 222
10 51 82 93 130 150 267 281 340 302 317 253 275 281 283 285 287 288 293 298 296 297 293 288 283 277 274 270 266 263 260 254 248 244 246 246 247 246 248 254 260 264 261 248 234 240 260 251 241
68 61 111 112 109 134 186 262 315 340 23 299 286 284 285 286 287 289 293 295 295 293 291 287 283 280 277 275 273 270 265 260 252 248 246 242 241 241 240 241 243 250 253 243 232 239 237 245 254